Iron Station, NC

2:41 PM EST on February 21, 2017 (GMT -0500)
Lincolnton-Lincoln County Regional

Weather History for KIPJ - October, 2012

Change the Weather History Date:

Sunday, October 7, 2012

  Actual Average (KCLT) Record (KCLT)
Temperature  
Mean Temperature 56 °F -  
Max Temperature 60 °F 73 °F 91 °F (1951)
Min Temperature 51 °F 52 °F 34 °F (1935)
Degree Days  
Heating Degree Days 10    
Growing Degree Days 6 (Base 50)    
Moisture  
Dew Point 52 °F    
Average Humidity 92    
Maximum Humidity 100    
Minimum Humidity 82    
Precipitation  
Precipitation 0.41 in - - ()
Sea Level Pressure  
Sea Level Pressure 30.05 in    
Wind  
Wind Speed 4 mph (NNE)    
Max Wind Speed 9 mph    
Max Gust Speed -    
Visibility 10 miles    
Events Rain    
Averages and records for this station are not official NWS values.
T = Trace of Precipitation, MM = Missing Value Source: NWS Daily Summary

Daily Weather History Graph

Daily Weather History Graph

Search for Another Location

Airport or City:

Trip Planner

Search our weather history database for the weather conditions in past years. The results will help you decide how hot, cold, wet, or windy it might be!

Date:

Astronomy

Oct. 07, 2012 Rise Set
Actual Time 7:24 AM EDT 6:59 PM EDT
Civil Twilight 6:59 AM EDT 7:24 PM EDT
Nautical Twilight 6:29 AM EDT 7:54 PM EDT
Astronomical Twilight 6:00 AM EDT 8:23 PM EDT
Moon No Moon Rise 1:52 PM EDT (10/7)
Length of Visible Light 12h 25m
Length of Day
11h 34m
Waning Gibbous, 56% of the Moon is Illuminated
Oct 7
Waning Gibbous
Oct 8
Last Quarter
Oct 15
New
Oct 21
First Quarter
Oct 29
Full

Hourly Weather History & Observations

Time (EDT) Temp. Dew Point Humidity Pressure Visibility Wind Dir Wind Speed Gust Speed Precip Events Conditions
12:15 AM 60.8 °F 59.0 °F 94% 30.00 in 10.0 mi NE 3.5 mph - N/A   Overcast
12:35 AM 59.0 °F 57.2 °F 94% 30.00 in 10.0 mi Calm Calm - N/A   Overcast
12:55 AM 59.0 °F 57.2 °F 94% 29.99 in 10.0 mi NE 3.5 mph - N/A   Mostly Cloudy
1:15 AM 59.0 °F 57.2 °F 94% 29.99 in 10.0 mi NNE 5.8 mph - N/A   Mostly Cloudy
1:35 AM 59.0 °F 55.4 °F 88% 29.99 in 10.0 mi NE 5.8 mph - N/A   Mostly Cloudy
1:55 AM 59.0 °F 55.4 °F 88% 30.00 in 10.0 mi NE 4.6 mph - N/A   Mostly Cloudy
2:15 AM 57.2 °F 55.4 °F 94% 29.99 in 10.0 mi NNE 3.5 mph - N/A   Mostly Cloudy
2:35 AM 57.2 °F 55.4 °F 94% 29.99 in 10.0 mi NE 4.6 mph - N/A   Scattered Clouds
2:55 AM 55.4 °F 55.4 °F 100% 29.99 in 10.0 mi NNE 3.5 mph - N/A   Scattered Clouds
3:15 AM 55.4 °F 55.4 °F 100% 30.00 in 10.0 mi NNE 3.5 mph - N/A   Mostly Cloudy
3:35 AM 55.4 °F 55.4 °F 100% 30.00 in 10.0 mi Calm Calm - N/A   Overcast
3:55 AM 55.4 °F 55.4 °F 100% 30.00 in 10.0 mi NNE 3.5 mph - N/A   Overcast
4:15 AM 55.4 °F 53.6 °F 94% 30.00 in 10.0 mi NNE 5.8 mph - N/A   Overcast
4:35 AM 55.4 °F 55.4 °F 100% 29.99 in 10.0 mi NE 6.9 mph - N/A   Overcast
4:55 AM 55.4 °F 53.6 °F 94% 29.98 in 10.0 mi NNE 5.8 mph - N/A   Overcast
5:15 AM 55.4 °F 53.6 °F 94% 29.98 in 10.0 mi NE 3.5 mph - N/A   Overcast
5:35 AM 53.6 °F 53.6 °F 100% 29.98 in 10.0 mi Calm Calm - 0.17 in Rain Light Rain
5:55 AM 53.6 °F 53.6 °F 100% 29.98 in 10.0 mi North 3.5 mph - 0.17 in   Overcast
6:15 AM 53.6 °F 53.6 °F 100% 29.99 in 10.0 mi Calm Calm - N/A   Overcast
6:35 AM 53.6 °F 51.8 °F 94% 30.01 in 10.0 mi NW 3.5 mph - 0.01 in Rain Light Rain
6:55 AM 53.6 °F 50.0 °F 88% 30.06 in 5.0 mi NNW 9.2 mph - 0.08 in Rain Heavy Rain
7:15 AM 51.8 °F 51.8 °F 100% 30.04 in 4.0 mi North 3.5 mph - 0.14 in Rain Rain
7:35 AM 51.8 °F 50.0 °F 94% 30.00 in 10.0 mi ESE 6.9 mph - 0.16 in Rain Light Rain
7:55 AM 51.8 °F 50.0 °F 94% 30.00 in 10.0 mi SE 3.5 mph - 0.16 in   Scattered Clouds
8:15 AM 51.8 °F 51.8 °F 100% 30.03 in 10.0 mi Calm Calm - N/A   Mostly Cloudy
8:35 AM 51.8 °F 51.8 °F 100% 30.05 in 10.0 mi NW 3.5 mph - N/A   Overcast
8:55 AM 51.8 °F 51.8 °F 100% 30.06 in 10.0 mi North 4.6 mph - N/A   Overcast
9:15 AM 53.6 °F 51.8 °F 94% 30.06 in 10.0 mi North 5.8 mph - N/A   Overcast
9:35 AM 53.6 °F 51.8 °F 94% 30.06 in 10.0 mi North 3.5 mph - N/A   Overcast
9:55 AM 53.6 °F 51.8 °F 94% 30.06 in 10.0 mi NNE 5.8 mph - N/A   Overcast
10:15 AM 55.4 °F 53.6 °F 94% 30.06 in 10.0 mi NE 3.5 mph - N/A   Overcast
10:35 AM 53.6 °F 51.8 °F 94% 30.07 in 10.0 mi NNE 9.2 mph - N/A   Overcast
10:55 AM 53.6 °F 51.8 °F 94% 30.08 in 10.0 mi NNE 8.1 mph - N/A   Overcast
11:15 AM 53.6 °F 51.8 °F 94% 30.07 in 10.0 mi NNE 3.5 mph - N/A   Overcast
11:35 AM 53.6 °F 51.8 °F 94% 30.07 in 10.0 mi NNE 5.8 mph - N/A   Overcast
11:55 AM 53.6 °F 51.8 °F 94% 30.07 in 10.0 mi NNE 5.8 mph - N/A   Overcast
12:15 PM 53.6 °F 51.8 °F 94% 30.06 in 10.0 mi NE 8.1 mph - N/A   Overcast
12:35 PM 53.6 °F 51.8 °F 94% 30.06 in 10.0 mi North 5.8 mph - N/A   Overcast
12:55 PM 53.6 °F 51.8 °F 94% 30.06 in 10.0 mi NNE 5.8 mph - N/A   Overcast
1:15 PM 53.6 °F 51.8 °F 94% 30.06 in 10.0 mi WNW 3.5 mph - N/A   Overcast
1:35 PM 53.6 °F 51.8 °F 94% 30.05 in 10.0 mi NE 3.5 mph - N/A   Overcast
1:55 PM 55.4 °F 51.8 °F 88% 30.03 in 10.0 mi NE 4.6 mph - N/A   Overcast
2:15 PM 55.4 °F 50.0 °F 82% 30.03 in 10.0 mi NE 5.8 mph - N/A   Overcast
2:35 PM 53.6 °F 50.0 °F 88% 30.02 in 10.0 mi NE 6.9 mph - N/A   Overcast
2:55 PM 55.4 °F 50.0 °F 82% 30.04 in 10.0 mi NNE 3.5 mph - N/A   Overcast
3:15 PM 55.4 °F 50.0 °F 82% 30.05 in 10.0 mi Calm Calm - N/A   Overcast
3:35 PM 55.4 °F 50.0 °F 82% 30.04 in 10.0 mi Calm Calm - N/A   Overcast
3:55 PM 55.4 °F 51.8 °F 88% 30.05 in 10.0 mi Calm Calm - N/A   Overcast
4:15 PM 55.4 °F 51.8 °F 88% 30.06 in 10.0 mi Calm Calm - N/A   Overcast
4:35 PM 55.4 °F 51.8 °F 88% 30.05 in 10.0 mi NNE 3.5 mph - N/A   Overcast
4:55 PM 55.4 °F 50.0 °F 82% 30.07 in 10.0 mi Calm Calm - N/A   Overcast
5:15 PM 55.4 °F 50.0 °F 82% 30.08 in 10.0 mi North 4.6 mph - N/A   Overcast
5:35 PM 55.4 °F 50.0 °F 82% 30.07 in 10.0 mi NNE 3.5 mph - N/A   Overcast
5:55 PM 55.4 °F 50.0 °F 82% 30.08 in 10.0 mi North 3.5 mph - N/A   Overcast
6:15 PM 55.4 °F 51.8 °F 88% 30.08 in 10.0 mi South 3.5 mph - N/A   Overcast
6:35 PM 53.6 °F 51.8 °F 94% 30.08 in 10.0 mi North 4.6 mph - N/A   Overcast
6:55 PM 53.6 °F 50.0 °F 88% 30.09 in 10.0 mi NNE 4.6 mph - N/A   Overcast
7:15 PM 53.6 °F 50.0 °F 88% 30.09 in 10.0 mi NNE 3.5 mph - N/A   Overcast
7:35 PM 53.6 °F 50.0 °F 88% 30.10 in 10.0 mi North 4.6 mph - N/A   Overcast
7:55 PM 53.6 °F 50.0 °F 88% 30.11 in 10.0 mi North 3.5 mph - N/A   Overcast
8:15 PM 53.6 °F 50.0 °F 88% 30.11 in 10.0 mi North 3.5 mph - N/A   Overcast
8:35 PM 53.6 °F 50.0 °F 88% 30.12 in 10.0 mi NNW 3.5 mph - N/A   Overcast
8:55 PM 53.6 °F 50.0 °F 88% 30.11 in 10.0 mi North 5.8 mph - N/A   Overcast
9:15 PM 53.6 °F 50.0 °F 88% 30.13 in 10.0 mi NNE 5.8 mph - N/A   Overcast
9:35 PM 51.8 °F 50.0 °F 94% 30.13 in 10.0 mi North 3.5 mph - N/A   Overcast
9:55 PM 51.8 °F 50.0 °F 94% 30.13 in 10.0 mi NNE 5.8 mph - N/A   Overcast
10:15 PM 51.8 °F 50.0 °F 94% 30.13 in 10.0 mi North 4.6 mph - N/A   Overcast
10:35 PM 51.8 °F 50.0 °F 94% 30.14 in 10.0 mi North 4.6 mph - N/A   Overcast
10:55 PM 51.8 °F 50.0 °F 94% 30.14 in 10.0 mi North 3.5 mph - N/A   Overcast
11:15 PM 51.8 °F 48.2 °F 88% 30.15 in 10.0 mi North 4.6 mph - N/A   Overcast
11:35 PM 51.8 °F 48.2 °F 88% 30.14 in 10.0 mi North 5.8 mph - N/A   Overcast
11:55 PM 51.8 °F 46.4 °F 82% 30.14 in 10.0 mi NNE 6.9 mph - N/A   Overcast